Date String (YYYY-MM-DD hh:mm:ss) UTC,Instrument flags,Ambient pressure (hPa),Sample flow (lpm),Bypass flow (lpm),Sample temperature (°C),Ambient temperature (°C),ASC tube jacket temperature (°C),LED temperature (°C),Box temperature (°C),Sample RH (%),Span deviation,Mass concentration (μg/m³),Mass concentration (μg/m³),Mass concentration (μg/m³)
DateTimeUTC,F1_M11,P_M11,Q1_M11,Q2_M11,T1_M11,T2_M11,T3_M11,T4_M11,T5_M11,U1_M11,ZSPAN_M11,X0_M11,X2_M11,X1_M11
2022-11-29 05:00:00,,0812.4,5.01,0.00,22.3,21.8,00.0,31.2,24.3,15.1,0000.0,0005.30,0003.66,0003.42
2022-11-29 05:01:00,,0812.4,5.00,0.00,22.4,22.4,00.0,31.2,24.4,15.1,0000.0,0005.26,0003.68,0003.41
2022-11-29 05:02:00,,0812.4,5.00,0.00,22.4,22.1,00.0,31.2,24.4,15.1,0000.0,0005.33,0003.68,0003.40
2022-11-29 05:03:00,,0812.4,5.00,0.00,22.4,21.9,00.0,31.3,24.4,15.1,0000.0,0006.50,0003.69,0003.38
2022-11-29 05:04:00,,0812.4,4.99,0.00,22.4,21.6,00.0,31.3,24.3,15.1,0000.0,0006.42,0003.69,0003.37
2022-11-29 05:05:00,,0812.4,5.01,0.00,22.4,21.5,00.0,31.3,24.3,15.1,0000.0,0006.33,0003.66,0003.38
2022-11-29 05:06:00,,0812.4,5.01,0.00,22.4,21.3,00.0,31.3,24.3,15.1,0000.0,0006.30,0003.67,0003.39
2022-11-29 05:07:00,,0812.4,5.01,0.00,22.4,21.2,00.0,31.3,24.2,15.1,0000.0,0006.65,0003.69,0003.39
2022-11-29 05:08:00,,0812.4,5.00,0.00,22.4,21.1,00.0,31.3,24.2,15.2,0000.0,0006.80,0003.72,0003.40
2022-11-29 05:09:00,,0812.4,4.99,0.00,22.4,21.0,00.0,31.3,24.2,15.2,0000.0,0006.93,0003.76,0003.41
2022-11-29 05:10:00,,0812.4,5.01,0.00,22.3,21.0,00.0,31.3,24.2,15.2,0000.0,0007.18,0003.76,0003.42
2022-11-29 05:11:00,,0812.4,5.01,0.00,22.3,20.9,00.0,31.3,24.1,15.2,0000.0,0007.20,0003.76,0003.43
2022-11-29 05:12:00,,0812.4,5.00,0.00,22.3,20.9,00.0,31.3,24.1,15.2,0000.0,0007.35,0003.76,0003.44
2022-11-29 05:13:00,,0812.4,4.99,0.00,22.3,20.9,00.0,31.3,24.1,15.2,0000.0,0007.90,0003.78,0003.44
2022-11-29 05:14:00,,0812.4,4.99,0.00,22.3,20.9,00.0,31.3,24.1,15.2,0000.0,0007.45,0003.79,0003.46
2022-11-29 05:15:00,,0812.4,5.00,0.00,22.3,20.8,00.0,31.3,24.1,15.2,0000.0,0007.25,0003.80,0003.48
2022-11-29 05:16:00,,0812.4,4.99,0.00,22.2,20.8,00.0,31.3,24.0,15.3,0000.0,0007.44,0003.83,0003.49
2022-11-29 05:17:00,,0812.3,5.00,0.00,22.2,20.8,00.0,31.3,24.0,15.3,0000.0,0007.51,0003.84,0003.48
2022-11-29 05:18:00,,0812.3,5.01,0.00,22.2,20.7,00.0,31.3,24.0,15.3,0000.0,0007.37,0003.82,0003.47
2022-11-29 05:19:00,,0812.4,5.01,0.00,22.2,21.1,00.0,31.2,24.1,15.3,0000.0,0007.25,0003.81,0003.46
2022-11-29 05:20:00,,0812.4,4.98,0.00,22.3,22.0,00.0,31.2,24.3,15.3,0000.0,0007.15,0003.75,0003.45
2022-11-29 05:21:00,,0812.4,5.00,0.00,22.4,22.3,00.0,31.2,24.4,15.2,0000.0,0006.92,0003.76,0003.46
2022-11-29 05:22:00,,0812.4,5.01,0.00,22.4,22.0,00.0,31.2,24.4,15.0,0000.0,0006.87,0003.81,0003.50
2022-11-29 05:23:00,,0812.4,5.00,0.00,22.4,21.7,00.0,31.3,24.3,14.9,0000.0,0007.41,0003.84,0003.56
2022-11-29 05:24:00,,0812.4,5.00,0.00,22.4,21.5,00.0,31.3,24.3,14.7,0000.0,0006.59,0003.86,0003.61
2022-11-29 05:25:00,,0812.4,5.00,0.00,22.4,21.3,00.0,31.3,24.2,14.6,0000.0,0006.44,0003.88,0003.65
2022-11-29 05:26:00,,0812.4,5.00,0.00,22.4,21.1,00.0,31.3,24.2,14.6,0000.0,0006.36,0003.91,0003.70
2022-11-29 05:27:00,,0812.4,5.00,0.00,22.3,21.0,00.0,31.3,24.1,14.5,0000.0,0006.10,0003.93,0003.74
2022-11-29 05:28:00,,0812.3,5.00,0.00,22.3,20.9,00.0,31.3,24.1,14.5,0000.0,0005.97,0003.97,0003.80
2022-11-29 05:29:00,,0812.3,5.00,0.00,22.3,20.9,00.0,31.3,24.1,14.4,0000.0,0006.17,0004.01,0003.85
2022-11-29 05:30:00,,0812.3,5.00,0.00,22.3,20.8,00.0,31.3,24.1,14.4,0000.0,0006.55,0004.05,0003.90
2022-11-29 05:31:00,,0812.3,5.02,0.00,22.3,21.0,00.0,31.3,24.1,14.4,0000.0,0006.67,0004.12,0003.96
2022-11-29 05:32:00,,0812.3,4.99,0.00,22.3,21.9,00.0,31.2,24.3,14.4,0000.0,0006.60,0004.16,0004.01
2022-11-29 05:33:00,,0812.4,5.01,0.00,22.5,22.5,00.0,31.2,24.5,14.3,0000.0,0006.46,0004.16,0004.02
2022-11-29 05:34:00,,0812.4,4.99,0.00,22.5,22.2,00.0,31.3,24.5,14.3,0000.0,0005.61,0004.16,0004.02
2022-11-29 05:35:00,,0812.4,4.98,0.00,22.5,21.8,00.0,31.3,24.4,14.2,0000.0,0005.17,0004.14,0004.00
2022-11-29 05:36:00,,0812.3,5.01,0.00,22.5,21.5,00.0,31.3,24.3,14.2,0000.0,0005.16,0004.13,0003.99
2022-11-29 05:37:00,,0812.3,5.00,0.00,22.4,21.3,00.0,31.4,24.2,14.2,0000.0,0005.23,0004.13,0003.99
2022-11-29 05:38:00,,0812.3,5.00,0.00,22.4,21.1,00.0,31.4,24.2,14.1,0000.0,0005.24,0004.13,0003.99
2022-11-29 05:39:00,,0812.4,5.01,0.00,22.4,21.0,00.0,31.4,24.1,14.1,0000.0,0005.19,0004.12,0003.99
2022-11-29 05:40:00,,0812.4,5.01,0.00,22.3,20.9,00.0,31.3,24.1,14.1,0000.0,0004.96,0004.12,0004.00
2022-11-29 05:41:00,,0812.4,5.00,0.00,22.3,20.8,00.0,31.3,24.1,14.1,0000.0,0004.75,0004.16,0004.01
2022-11-29 05:42:00,,0812.4,4.99,0.00,22.3,20.9,00.0,31.3,24.1,14.1,0000.0,0004.81,0004.16,0004.02
2022-11-29 05:43:00,,0812.4,5.00,0.00,22.4,21.7,00.0,31.3,24.3,14.0,0000.0,0004.84,0004.17,0004.04
2022-11-29 05:44:00,,0812.4,5.00,0.00,22.5,22.5,00.0,31.3,24.5,14.0,0000.0,0004.88,0004.19,0004.06
2022-11-29 05:45:00,,0812.4,4.99,0.00,22.5,22.2,00.0,31.3,24.5,13.9,0000.0,0004.91,0004.21,0004.08
2022-11-29 05:46:00,,0812.4,5.00,0.00,22.5,21.9,00.0,31.4,24.4,13.9,0000.0,0005.00,0004.26,0004.13
2022-11-29 05:47:00,,0812.4,5.00,0.00,22.5,21.6,00.0,31.4,24.3,13.9,0000.0,0005.05,0004.30,0004.17
2022-11-29 05:48:00,,0812.3,4.99,0.00,22.5,21.5,00.0,31.4,24.3,13.8,0000.0,0005.03,0004.34,0004.21
2022-11-29 05:49:00,,0812.3,5.00,0.00,22.5,21.3,00.0,31.4,24.3,13.8,0000.0,0005.13,0004.38,0004.25
2022-11-29 05:50:00,,0812.3,5.01,0.00,22.4,21.2,00.0,31.4,24.2,13.8,0000.0,0005.25,0004.42,0004.27
2022-11-29 05:51:00,,0812.3,5.01,0.00,22.4,21.1,00.0,31.4,24.2,13.8,0000.0,0005.30,0004.45,0004.31
2022-11-29 05:52:00,,0812.3,5.00,0.00,22.4,20.9,00.0,31.4,24.1,13.8,0000.0,0005.10,0004.46,0004.34
2022-11-29 05:53:00,,0812.3,5.00,0.00,22.4,20.9,00.0,31.4,24.1,13.7,0000.0,0005.52,0004.45,0004.34
2022-11-29 05:54:00,,0812.3,5.00,0.00,22.3,20.9,00.0,31.4,24.1,13.7,0000.0,0006.08,0004.45,0004.34
2022-11-29 05:55:00,,0812.3,5.00,0.00,22.4,21.5,00.0,31.3,24.2,13.7,0000.0,0006.11,0004.45,0004.34
2022-11-29 05:56:00,,0812.3,4.99,0.00,22.5,22.4,00.0,31.3,24.5,13.6,0000.0,0007.58,0004.46,0004.34
2022-11-29 05:57:00,,0812.3,5.00,0.00,22.6,22.3,00.0,31.4,24.5,13.5,0000.0,0007.56,0004.44,0004.33
2022-11-29 05:58:00,,0812.3,5.00,0.00,22.6,22.0,00.0,31.4,24.5,13.5,0000.0,0007.55,0004.42,0004.32
2022-11-29 05:59:00,,0812.3,5.00,0.00,22.5,21.7,00.0,31.4,24.4,13.5,0000.0,0007.56,0004.41,0004.29
